This is the latest recevied weather packets stored in our database for station/object AA8FM-13. If no packets are shown the sender has not sent any weather packets the latest 10 day(s).
| Time | Temp. | Humidity | Pressure | Rain* | Wind** | Luminosity | Snow |
|---|---|---|---|---|---|---|---|
| 1777949025 | 15.56° C | 72% | 1006.7 hPa | 0 mm | - | 0 W/m² | - |
| 1777948722 | 15° C | 73% | 1006.8 hPa | 0 mm | - | 0 W/m² | - |
| 1777948419 | 15° C | 73% | 1006.8 hPa | 0 mm | - | 0 W/m² | - |
| 1777948116 | 15.56° C | 73% | 1006.9 hPa | 0 mm | - | 0 W/m² | - |
| 1777947813 | 15.56° C | 73% | 1006.7 hPa | 0 mm | - | 0 W/m² | - |
| 1777947510 | 15.56° C | 74% | 1006.7 hPa | 0 mm | - | 0 W/m² | - |
| 1777947207 | 15.56° C | 72% | 1006.6 hPa | 0 mm | - | 0 W/m² | - |
| 1777946902 | 15.56° C | 71% | 1006.7 hPa | 0 mm | - | 0 W/m² | - |
| 1777946598 | 15.56° C | 72% | 1006.9 hPa | 0 mm | - | 0 W/m² | - |
| 1777946295 | 15.56° C | 72% | 1006.9 hPa | 0 mm | - | 0 W/m² | - |
| 1777945992 | 16.11° C | 69% | 1006.7 hPa | 0 mm | - | 0 W/m² | - |
| 1777945690 | 16.11° C | 70% | 1007.1 hPa | 0 mm | - | 0 W/m² | - |
| 1777945386 | 16.11° C | 69% | 1006.9 hPa | 0 mm | - | 0 W/m² | - |
| 1777945083 | 16.67° C | 68% | 1006.9 hPa | 0 mm | - | 0 W/m² | - |
| 1777944780 | 16.67° C | 66% | 1006.9 hPa | 0 mm | - | 0 W/m² | - |
| 1777944478 | 16.67° C | 67% | 1006.9 hPa | 0 mm | - | 0 W/m² | - |
| 1777944176 | 17.22° C | 66% | 1006.7 hPa | 0 mm | - | 0 W/m² | - |
| 1777943871 | 17.22° C | 66% | 1006.7 hPa | 0 mm | - | 0 W/m² | - |
| 1777943568 | 17.78° C | 64% | 1007.1 hPa | 0 mm | - | 0 W/m² | - |
| 1777943264 | 17.78° C | 63% | 1007.1 hPa | 0 mm | - | 0 W/m² | - |
| 1777942960 | 17.78° C | 64% | 1006.9 hPa | 0 mm | - | 0 W/m² | - |
| 1777942657 | 18.33° C | 63% | 1006.8 hPa | 0 mm | - | 0 W/m² | - |
| 1777942354 | 18.89° C | 61% | 1006.7 hPa | 0 mm | - | 0 W/m² | - |
| 1777942051 | 18.89° C | 61% | 1006.7 hPa | 0 mm | - | 0 W/m² | - |
| 1777941748 | 18.89° C | 59% | 1006.9 hPa | 0 mm | - | 0 W/m² | - |
* Rain latest hour (hover to see other rain measurements)
** Current wind speed in m/s (hover to see current wind gust speed)